Tracking 28790 objects as of 19-Apr-2024
HD Live streaming from Space Station
objects crossing your sky now

FENGYUN 1C DEB

Track FENGYUN 1C DEB now!
10-day predictions


NORAD ID: 30820
Int'l Code: 1999-025AVE
Perigee: 814.4 km
Apogee: 899.9 km
Inclination: 98.7 °
Period: 101.9 minutes
Semi major axis: 7228 km
RCS: 0.0172 m2 (small)
Launch date: May 10, 1999
Source: People's Republic of China (PRC)
Launch site: Taiyaun Space Center, China (TSC)

Note: This is SATELLITE DEBRIS
Your satellite tracking list
Your tracking list is empty




NASA's NSSDC Master Catalog

Two Line Element Set (TLE):
1 30820U 99025AVE 24109.28386986  .00009507  00000-0  50559-2 0  9991
2 30820  98.6705 213.7280 0059165 122.1242 301.5021 14.12730906878742
Source of the keplerian elements: AFSPC